FW9098 Weather Reports


Display with metric or nautical units.
time (UTC)temp
F
wind
direction
speed
MPH
gust
MPH
rain 1hr
in
rain 24hr
in
rain mn
in
humidity
%
barometer
mb
20260506155038 75 103 8.0 22.0 0.00 0.00 0.00 45 1003.8
20260506154552 75 110 6.0 22.0 0.00 0.00 0.00 46 1003.7
20260506154039 75 155 10.0 22.0 0.00 0.00 0.00 45 1003.7
20260506153535 75 153 6.0 18.0 0.00 0.00 0.00 45 1003.8
20260506153109 76 138 9.0 21.0 0.00 0.00 0.00 44 1003.8
20260506152537 76 155 6.0 21.0 0.00 0.00 0.00 44 1003.9
20260506152036 75 138 9.0 20.0 0.00 0.00 0.00 43 1003.9
20260506151546 76 157 5.0 21.0 0.00 0.00 0.00 43 1003.8
20260506151035 76 125 8.0 21.0 0.00 0.00 0.00 42 1003.8
20260506150536 76 150 10.0 22.0 0.00 0.00 0.00 42 1003.8
20260506150048 76 99 9.0 29.0 0.00 0.00 0.00 42 1003.8
20260506145535 76 103 11.0 29.0 0.00 0.00 0.00 41 1003.8
20260506145036 76 133 11.0 29.0 0.00 0.00 0.00 41 1003.9
20260506144547 76 132 7.0 24.0 0.00 0.00 0.00 42 1003.7
20260506144035 76 132 8.0 24.0 0.00 0.00 0.00 42 1003.9
20260506143535 76 144 11.0 26.0 0.00 0.00 0.00 40 1003.8
20260506143045 77 127 6.0 26.0 0.00 0.00 0.00 40 1003.8
20260506142538 77 155 8.0 24.0 0.00 0.00 0.00 39 1003.8
20260506142035 78 128 9.0 24.0 0.00 0.00 0.00 38 1003.9
20260506141549 78 96 9.0 23.0 0.00 0.00 0.00 38 1003.9
20260506141035 79 112 5.0 22.0 0.00 0.00 0.00 38 1003.9
20260506140539 79 123 5.0 24.0 0.00 0.00 0.00 39 1003.9
20260506140051 78 116 9.0 23.0 0.00 0.00 0.00 39 1003.9
20260506135536 78 102 10.0 23.0 0.00 0.00 0.00 39 1004.0
20260506135035 79 147 9.0 23.0 0.00 0.00 0.00 38 1004.0
20260506134547 78 167 9.0 23.0 0.00 0.00 0.00 39 1004.0
20260506134036 79 104 9.0 21.0 0.00 0.00 0.00 38 1004.2
20260506133536 78 163 7.0 21.0 0.00 0.00 0.00 38 1004.2
20260506133050 79 153 7.0 22.0 0.00 0.00 0.00 37 1004.1
20260506132535 80 130 5.0 22.0 0.00 0.00 0.00 37 1004.3
20260506132035 79 122 7.0 21.0 0.00 0.00 0.00 37 1004.3
20260506131546 78 115 8.0 21.0 0.00 0.00 0.00 38 1004.5
20260506131035 77 163 5.0 20.0 0.00 0.00 0.00 41 1004.5
20260506130536 76 99 7.0 23.0 0.00 0.00 0.00 41 1004.5
20260506130047 76 116 11.0 23.0 0.00 0.00 0.00 39 1004.6
20260506125536 76 157 8.0 22.0 0.00 0.00 0.00 39 1004.9
20260506125036 76 98 7.0 19.0 0.00 0.00 0.00 39 1004.9
20260506124547 77 129 3.0 13.0 0.00 0.00 0.00 40 1004.9
20260506124036 76 150 4.0 17.0 0.00 0.00 0.00 40 1004.9
20260506123536 76 108 6.0 19.0 0.00 0.00 0.00 39 1005.0
20260506123050 76 164 7.0 19.0 0.00 0.00 0.00 39 1005.0
20260506122535 76 140 6.0 17.0 0.00 0.00 0.00 40 1005.2
20260506122035 76 122 5.0 17.0 0.00 0.00 0.00 39 1005.2
20260506121602 76 92 7.0 17.0 0.00 0.00 0.00 39 1005.4
20260506121036 76 116 5.0 14.0 0.00 0.00 0.00 40 1005.3
20260506120536 76 143 5.0 16.0 0.00 0.00 0.00 39 1005.4
20260506120048 76 94 6.0 16.0 0.00 0.00 0.00 39 1005.5
20260506115534 75 134 8.0 16.0 0.00 0.00 0.00 40 1005.6
20260506115035 75 90 4.0 14.0 0.00 0.00 0.00 43 1005.6
20260506114546 75 121 6.0 14.0 0.00 0.00 0.00 44 1005.7
20260506114036 75 130 8.0 14.0 0.00 0.00 0.00 43 1005.7
20260506113534 76 145 7.0 22.0 0.00 0.00 0.00 43 1005.7
20260506113045 75 82 7.0 22.0 0.00 0.00 0.00 43 1005.9
20260506112537 76 112 7.0 22.0 0.00 0.00 0.00 42 1006.1
20260506112038 77 95 6.0 20.0 0.00 0.00 0.00 43 1006.1
20260506111543 76 179 6.0 20.0 0.00 0.00 0.00 44 1006.0
20260506111036 76 126 7.0 14.0 0.00 0.00 0.00 42 1006.1
20260506110539 77 165 3.0 16.0 0.00 0.00 0.00 44 1006.2
20260506110056 76 137 4.0 18.0 0.00 0.00 0.00 46 1006.4
20260506105536 76 118 7.0 18.0 0.00 0.00 0.00 45 1006.6
20260506105036 76 123 7.0 18.0 0.00 0.00 0.00 45 1006.5
20260506104549 75 137 7.0 20.0 0.00 0.00 0.00 44 1006.6
20260506104035 75 104 7.0 20.0 0.00 0.00 0.00 45 1007.0
20260506103537 75 161 6.0 18.0 0.00 0.00 0.00 45 1007.0
20260506103047 76 65 6.0 18.0 0.00 0.00 0.00 44 1007.2
20260506102536 75 131 7.0 17.0 0.00 0.00 0.00 44 1007.1
20260506102039 75 178 8.0 17.0 0.00 0.00 0.00 44 1007.2
20260506101613 74 148 7.0 19.0 0.00 0.00 0.00 45 1007.3
20260506101034 74 86 7.0 19.0 0.00 0.00 0.00 44 1007.3
20260506100535 74 93 6.0 19.0 0.00 0.00 0.00 45 1007.4
20260506100051 75 111 7.0 17.0 0.00 0.00 0.00 44 1007.6
20260506095536 75 136 6.0 17.0 0.00 0.00 0.00 43 1007.6
20260506095036 75 127 5.0 17.0 0.00 0.00 0.00 45 1007.5
20260506094553 75 117 3.0 12.0 0.00 0.00 0.00 47 1007.6
20260506094036 75 110 5.0 16.0 0.00 0.00 0.00 45 1007.6
20260506093537 75 115 5.0 16.0 0.00 0.00 0.00 44 1007.6
20260506093046 76 139 3.0 11.0 0.00 0.00 0.00 43 1007.6
20260506092536 76 117 3.0 13.0 0.00 0.00 0.00 43 1007.7
20260506092036 75 153 3.0 13.0 0.00 0.00 0.00 44 1007.8
20260506091548 74 110 2.0 11.0 0.00 0.00 0.00 46 1007.8
20260506091039 74 136 5.0 12.0 0.00 0.00 0.00 46 1007.7
20260506090536 74 124 4.0 12.0 0.00 0.00 0.00 47 1007.9
20260506090100 74 98 2.0 8.0 0.00 0.00 0.00 47 1007.7
20260506085535 74 96 2.0 10.0 0.00 0.00 0.00 47 1007.8
20260506085035 72 0 3.0 10.0 0.00 0.00 0.00 49 1007.6
20260506084552 73 78 6.0 10.0 0.00 0.00 0.00 47 1007.7
20260506084037 73 103 2.0 9.0 0.00 0.00 0.00 48 1007.8
20260506083540 73 90 2.0 9.0 0.00 0.00 0.00 49 1007.8
20260506083046 72 111 3.0 8.0 0.00 0.00 0.00 47 1007.8
20260506082540 72 0 1.0 8.0 0.00 0.00 0.00 49 1007.8
20260506082036 72 139 2.0 9.0 0.00 0.00 0.00 50 1007.7
20260506081544 71 101 2.0 9.0 0.00 0.00 0.00 51 1007.9
20260506081036 72 90 3.0 8.0 0.00 0.00 0.00 50 1007.9
20260506080536 72 0 2.0 7.0 0.00 0.00 0.00 51 1007.9
20260506073048 69 112 0.0 4.0 0.00 0.00 0.00 51 1008.1
20260506072537 69 34 1.0 4.0 0.00 0.00 0.00 49 1008.0
20260506072037 69 103 1.0 4.0 0.00 0.00 0.00 50 1008.1
20260506071548 68 0 0.0 4.0 0.00 0.00 0.00 52 1008.1
20260506071039 69 202 1.0 5.0 0.00 0.00 0.00 52 1008.1
20260506070536 69 153 1.0 5.0 0.00 0.00 0.00 53 1008.2
20260506062037 65 0 0.0 6.0 0.00 0.00 0.00 59 1008.4
20260506061550 65 286 1.0 4.0 0.00 0.00 0.00 60 1008.4
20260506061034 64 277 0.0 4.0 0.00 0.00 0.00 60 1008.5
20260506060611 64 327 0.0 4.0 0.00 0.00 0.00 61 1008.4
20260506051034 62 279 0.0 4.0 0.00 0.00 0.00 64 1008.4
20260506050535 62 288 0.0 5.0 0.00 0.00 0.00 65 1008.5
20260506050109 62 288 2.0 8.0 0.00 0.00 0.00 65 1008.5
20260506045034 62 318 2.0 7.0 0.00 0.00 0.00 65 1008.3
20260506044548 62 267 3.0 6.0 0.00 0.00 0.00 65 1008.3
20260506044036 62 234 2.0 7.0 0.00 0.00 0.00 66 1008.2
20260506043533 61 292 3.0 7.0 0.00 0.00 0.00 67 1008.2
20260506043049 61 299 3.0 7.0 0.00 0.00 0.00 68 1008.2
20260506042536 61 288 2.0 6.0 0.00 0.00 0.00 68 1008.1
20260506042037 61 269 2.0 6.0 0.00 0.00 0.00 69 1008.0
20260506041558 60 213 1.0 6.0 0.00 0.00 0.00 69 1008.1
20260506041034 60 223 1.0 3.0 0.00 0.00 0.00 70 1008.1
20260506040534 60 234 1.0 3.0 0.00 0.00 0.00 70 1008.0
20260506040055 60 234 1.0 3.0 0.00 0.00 0.00 70 1008.0
20260506035538 60 0 1.0 7.0 0.00 0.00 0.00 70 1007.9
20260506035034 61 331 2.0 7.0 0.00 0.00 0.00 70 1008.0
20260506034552 61 302 2.0 8.0 0.00 0.00 0.00 70 1007.9
20260506034037 61 301 3.0 8.0 0.00 0.00 0.00 70 1007.9
20260506033537 61 306 3.0 8.0 0.00 0.00 0.00 69 1007.9
20260506033047 61 265 3.0 6.0 0.00 0.00 0.00 69 1007.9
20260506032540 61 279 2.0 9.0 0.00 0.00 0.00 69 1007.9
20260506032036 61 296 2.0 9.0 0.00 0.00 0.00 69 1007.9
20260506031545 61 325 2.0 9.0 0.00 0.00 0.00 69 1007.9
20260506031036 61 290 3.0 9.0 0.00 0.00 0.00 69 1007.8
20260506030536 61 304 3.0 9.0 0.00 0.00 0.00 69 1007.8
20260506030045 62 321 4.0 9.0 0.00 0.00 0.00 69 1007.9
20260506025610 62 298 3.0 8.0 0.00 0.00 0.00 69 1007.9
20260506025036 62 327 2.0 9.0 0.00 0.00 0.00 69 1007.9
20260506024546 62 288 3.0 9.0 0.00 0.00 0.00 69 1007.9
20260506024036 62 331 3.0 10.0 0.00 0.00 0.00 69 1007.8
20260506023534 62 325 3.0 10.0 0.00 0.00 0.00 68 1007.8
20260506023106 62 303 2.0 7.0 0.00 0.00 0.00 68 1007.8
20260506022536 62 291 3.0 9.0 0.00 0.00 0.00 68 1007.8
20260506022036 62 324 2.0 9.0 0.00 0.00 0.00 68 1007.8
20260506021548 62 271 3.0 9.0 0.00 0.00 0.00 68 1007.7
20260506021035 62 298 3.0 8.0 0.00 0.00 0.00 68 1007.7
20260506020535 62 257 2.0 10.0 0.00 0.00 0.00 68 1007.6
20260506020053 62 281 4.0 10.0 0.00 0.00 0.00 67 1007.6
20260506015536 63 321 4.0 9.0 0.00 0.00 0.00 67 1007.5
20260506015037 63 329 3.0 13.0 0.00 0.00 0.00 66 1007.5
20260506014547 63 251 3.0 13.0 0.00 0.00 0.00 66 1007.4
20260506014035 63 340 6.0 11.0 0.00 0.00 0.00 66 1007.4
20260506013535 63 303 5.0 10.0 0.00 0.00 0.00 66 1007.3
20260506013056 63 286 3.0 8.0 0.00 0.00 0.00 65 1007.4
20260506012539 63 270 3.0 8.0 0.00 0.00 0.00 65 1007.3
20260506012037 63 270 3.0 12.0 0.00 0.00 0.00 64 1007.4
20260506011548 64 289 4.0 12.0 0.00 0.00 0.00 64 1007.4
20260506011035 64 271 5.0 12.0 0.00 0.00 0.00 64 1007.3
20260506010537 64 273 4.0 15.0 0.00 0.00 0.00 64 1007.2
20260506010050 64 246 5.0 15.0 0.00 0.00 0.00 64 1007.2
20260506005535 64 267 5.0 11.0 0.00 0.00 0.00 64 1007.2
20260506005037 63 273 5.0 10.0 0.00 0.00 0.00 65 1007.1
20260506004546 63 313 2.0 9.0 0.00 0.00 0.00 65 1007.1
20260506004036 62 335 3.0 9.0 0.00 0.00 0.00 65 1007.0
20260506003536 62 306 3.0 6.0 0.00 0.00 0.00 65 1007.0
20260506003050 61 274 3.0 6.0 0.00 0.00 0.00 66 1006.8
20260506002535 60 302 2.0 4.0 0.00 0.00 0.00 66 1006.7
20260506002035 60 279 0.0 2.0 0.00 0.00 0.00 65 1006.7
20260506001554 60 0 0.0 2.0 0.00 0.00 0.00 65 1006.6
20260506001036 60 0 0.0 0.0 0.00 0.00 0.00 65 1006.6
20260506000535 60 0 0.0 0.0 0.00 0.00 0.00 65 1006.7
20260506000054 59 0 0.0 0.0 0.00 0.00 0.00 66 1006.6
20260505235535 59 0 0.0 1.0 0.00 0.00 0.00 66 1006.4
20260505235037 60 0 0.0 1.0 0.00 0.00 0.00 65 1006.3
20260505234546 59 0 0.0 1.0 0.00 0.00 0.00 65 1006.4
20260505234035 60 0 0.0 0.0 0.00 0.00 0.00 65 1006.4
20260505233541 60 0 0.0 0.0 0.00 0.00 0.00 65 1006.2
20260505233056 60 0 0.0 0.0 0.00 0.00 0.00 64 1006.2
20260505232536 60 0 0.0 0.0 0.00 0.00 0.00 64 1006.1
20260505232036 59 0 0.0 0.0 0.00 0.00 0.00 65 1006.1
20260505231552 59 0 0.0 0.0 0.00 0.00 0.00 65 1006.0
20260505231036 59 0 0.0 0.0 0.00 0.00 0.00 64 1006.0
20260505230536 60 0 0.0 3.0 0.00 0.00 0.00 64 1005.9
20260505230112 60 0 0.0 3.0 0.00 0.00 0.00 64 1005.9
20260505225536 60 112 0.0 3.0 0.00 0.00 0.00 64 1005.9
20260505225035 60 119 0.0 2.0 0.00 0.00 0.00 64 1005.8
20260505224545 60 0 0.0 0.0 0.00 0.00 0.00 63 1005.7
20260505224036 60 0 0.0 0.0 0.00 0.00 0.00 62 1005.6
20260505223535 60 0 0.0 0.0 0.00 0.00 0.00 63 1005.6
20260505223047 60 0 0.0 0.0 0.00 0.00 0.00 63 1005.5
20260505222536 60 0 0.0 1.0 0.00 0.00 0.00 63 1005.4
20260505222040 60 0 0.0 1.0 0.00 0.00 0.00 62 1005.4
20260505221557 60 0 0.0 3.0 0.00 0.00 0.00 62 1005.4
20260505221037 61 121 0.0 3.0 0.00 0.00 0.00 61 1005.3
20260505220536 61 121 0.0 3.0 0.00 0.00 0.00 60 1005.2
20260505220056 61 0 0.0 0.0 0.00 0.00 0.00 60 1005.2
20260505215537 61 0 0.0 2.0 0.00 0.00 0.00 60 1005.2
20260505215036 61 0 0.0 2.0 0.00 0.00 0.00 59 1005.0
20260505214548 62 0 0.0 2.0 0.00 0.00 0.00 59 1005.0
20260505214035 62 0 0.0 3.0 0.00 0.00 0.00 59 1004.9
20260505213536 62 122 0.0 3.0 0.00 0.00 0.00 59 1004.9
20260505213053 62 0 0.0 2.0 0.00 0.00 0.00 59 1004.9
20260505212535 62 0 0.0 3.0 0.00 0.00 0.00 59 1004.9
20260505212036 62 0 0.0 6.0 0.00 0.00 0.00 58 1004.8
20260505211600 62 118 1.0 6.0 0.00 0.00 0.00 58 1004.8
20260505211036 62 117 2.0 6.0 0.00 0.00 0.00 58 1004.7
20260505210535 63 122 2.0 5.0 0.00 0.00 0.00 57 1004.8
20260505210056 63 109 1.0 3.0 0.00 0.00 0.00 57 1004.8
20260505205535 63 113 0.0 3.0 0.00 0.00 0.00 56 1004.7
20260505205035 64 113 1.0 5.0 0.00 0.00 0.00 56 1004.6
20260505204550 64 117 1.0 8.0 0.00 0.00 0.00 56 1004.6
20260505204034 64 134 2.0 8.0 0.00 0.00 0.00 56 1004.2
20260505203534 64 360 2.0 8.0 0.00 0.00 0.00 56 1004.2
20260505203043 64 115 1.0 8.0 0.00 0.00 0.00 56 1004.2
20260505202534 64 116 3.0 8.0 0.00 0.00 0.00 55 1004.0
20260505202034 64 118 2.0 9.0 0.00 0.00 0.00 55 1004.1
20260505201549 64 119 2.0 9.0 0.00 0.00 0.00 55 1004.0
20260505201038 64 0 4.0 9.0 0.00 0.00 0.00 54 1004.0
20260505200534 65 117 2.0 11.0 0.00 0.00 0.00 54 1004.0
20260505200056 65 117 4.0 11.0 0.00 0.00 0.00 54 1003.9
20260505195536 65 131 2.0 9.0 0.00 0.00 0.00 54 1004.0
20260505195035 65 0 2.0 11.0 0.00 0.00 0.00 54 1003.9
20260505194549 65 123 3.0 11.0 0.00 0.00 0.00 53 1004.0
20260505194035 65 123 4.0 9.0 0.00 0.00 0.00 53 1003.9
20260505193536 65 115 2.0 10.0 0.00 0.00 0.00 53 1004.0
20260505193059 65 119 2.0 11.0 0.00 0.00 0.00 52 1003.9
20260505192536 66 131 4.0 12.0 0.00 0.00 0.00 52 1003.9
20260505192033 66 132 3.0 12.0 0.00 0.00 0.00 52 1003.8
20260505191549 66 117 3.0 11.0 0.00 0.00 0.00 52 1003.8
20260505191038 66 153 4.0 11.0 0.00 0.00 0.00 51 1003.8
20260505190538 66 103 4.0 13.0 0.00 0.00 0.00 51 1003.8
20260505190052 66 108 4.0 13.0 0.00 0.00 0.00 51 1003.9
20260505185536 66 119 5.0 13.0 0.00 0.00 0.00 51 1003.9
20260505185034 67 117 4.0 12.0 0.00 0.00 0.00 51 1003.9
20260505184551 67 100 3.0 12.0 0.00 0.00 0.00 50 1003.9
20260505184035 67 109 4.0 12.0 0.00 0.00 0.00 50 1003.8
20260505183537 67 118 4.0 13.0 0.00 0.00 0.00 50 1003.8
20260505183045 67 125 5.0 13.0 0.00 0.00 0.00 49 1003.7
20260505182535 67 193 5.0 13.0 0.00 0.00 0.00 49 1003.8
20260505182035 68 155 4.0 17.0 0.00 0.00 0.00 48 1003.9
20260505181554 68 136 5.0 17.0 0.00 0.00 0.00 48 1003.8
20260505181035 68 131 7.0 17.0 0.00 0.00 0.00 48 1003.9
20260505180535 68 150 7.0 16.0 0.00 0.00 0.00 47 1003.8
20260505180054 69 130 5.0 18.0 0.00 0.00 0.00 47 1003.8
20260505175534 69 119 6.0 18.0 0.00 0.00 0.00 46 1003.9
20260505175034 69 119 7.0 16.0 0.00 0.00 0.00 46 1003.8
20260505174603 70 119 6.0 14.0 0.00 0.00 0.00 45 1003.8
20260505174035 70 159 4.0 15.0 0.00 0.00 0.00 45 1003.8
20260505173536 71 124 6.0 15.0 0.00 0.00 0.00 44 1003.9
20260505173047 71 121 3.0 24.0 0.00 0.00 0.00 44 1003.8
20260505172535 71 125 5.0 24.0 0.00 0.00 0.00 44 1003.9
20260505172038 72 161 7.0 24.0 0.00 0.00 0.00 43 1003.8
20260505171548 72 128 9.0 20.0 0.00 0.00 0.00 43 1003.8
20260505171036 72 136 6.0 19.0 0.00 0.00 0.00 43 1003.9
20260505170536 73 146 6.0 19.0 0.00 0.00 0.00 42 1004.1
20260505170046 73 121 6.0 20.0 0.00 0.00 0.00 42 1003.9
20260505165538 73 153 9.0 20.0 0.00 0.00 0.00 41 1003.9
20260505165035 74 126 7.0 19.0 0.00 0.00 0.00 42 1004.0
20260505164550 73 111 8.0 19.0 0.00 0.00 0.00 42 1003.9
20260505164035 73 155 6.0 18.0 0.00 0.00 0.00 43 1003.9
20260505163534 73 151 5.0 21.0 0.00 0.00 0.00 43 1004.1
20260505163054 73 148 6.0 24.0 0.00 0.00 0.00 42 1004.0
20260505162536 73 155 9.0 24.0 0.00 0.00 0.00 42 1004.2
20260505162035 74 138 8.0 24.0 0.00 0.00 0.00 41 1004.0
20260505161548 74 138 9.0 23.0 0.00 0.00 0.00 41 1004.2
20260505161036 74 155 7.0 19.0 0.00 0.00 0.00 41 1004.2
20260505160536 74 137 6.0 24.0 0.00 0.00 0.00 41 1004.1